Home   Weather   Paris 07   Past weeks
Flag for France

Past Weather in Paris 07, Paris, France — Yesterday and Last 2 Weeks

Now
52 °F

Mostly cloudy.


Feels Like: 51 °F
Forecast: 54 / 53 °F
Wind: 5 mph from Southwest

Location: Villacoublay

Current Time: Oct 19, 2019 at 9:40:01 am

Latest Report: Oct 19, 2019 at 9:00 am


Visibility: N/A

Pressure: 29.68 "Hg

Humidity: 100%

Dew Point: 52 °F

Location of Paris 07Location

Past Weather in Paris 07 — Graph

°F

Paris 07 Temperature Yesterday

Maximum temperature yesterday: 61 °F (at 2:30 pm)
Minimum temperature yesterday: 50 °F (at 8:00 am)
Average temperature yesterday: 56 °F

High & Low Weather Summary for the Past Weeks

 TemperatureHumidityPressure
High75 °F (Oct 13, 1:30 pm)100% (Oct 5, 6:00 am)30.09 "Hg (Oct 5, 6:00 am)
Low50 °F (Oct 7, 4:00 am)50% (Oct 13, 2:00 pm)29.65 "Hg (Oct 14, 4:30 pm)
Average57 °F85%29.88 "Hg
* Reported Oct 4 8:00 am — Oct 19 8:30 am, Paris 07. Weather by CustomWeather, © 2019

Note: Actual official high and low records may vary slightly from our data, if they occured in-between our weather recording intervals... More about our weather records

Advertising

Paris 07 Weather History for the Previous 24 Hours

Scroll right to see more
 ConditionsComfort  
Time TempWeatherWind HumidityBarometerVisibility
8:30 am
Sat, Oct 19
52 °FPartly sunny.5 mph94%29.65 "HgN/A
8:00 am52 °FPartly cloudy.7 mph94%29.65 "HgN/A
7:30 am54 °FMostly cloudy.9 mph88%29.65 "HgN/A
7:00 am54 °FMostly cloudy.10 mph94%29.65 "HgN/A
6:30 am54 °FMostly cloudy.9 mph94%29.65 "HgN/A
6:00 am54 °FMostly cloudy.8 mph94%29.68 "HgN/A
5:30 am54 °FLow clouds.9 mph94%29.68 "HgN/A
5:00 am54 °FLow clouds.12 mph94%29.68 "HgN/A
4:30 am54 °FLow clouds.9 mph94%29.68 "HgN/A
4:00 am54 °FLight rain. Mostly cloudy.8 mph94%29.68 "HgN/A
3:30 am54 °FLight rain. Passing clouds.9 mph94%29.68 "HgN/A
3:00 am54 °FPassing clouds.10 mph94%29.71 "HgN/A
2:30 am54 °FPassing clouds.9 mph94%29.71 "HgN/A
2:00 am54 °FLight rain. Partly cloudy.10 mph94%29.71 "HgN/A
1:30 am54 °FMostly cloudy.10 mph94%29.71 "HgN/A
1:00 am55 °FPartly cloudy.8 mph82%29.71 "HgN/A
12:30 am55 °FMostly cloudy.7 mph82%29.74 "HgN/A
12:00 am55 °FPassing clouds.8 mph82%29.74 "HgN/A
11:30 pm
Fri, Oct 18
55 °FPassing clouds.8 mph82%29.74 "HgN/A
11:00 pm54 °FPassing clouds.9 mph88%29.74 "HgN/A
10:30 pm54 °FPassing clouds.9 mph82%29.77 "HgN/A
10:00 pm55 °FClear.10 mph77%29.77 "Hg10 mi
9:30 pm55 °FOvercast.9 mph77%29.77 "HgN/A
9:00 pm55 °FPassing clouds.7 mph77%29.77 "HgN/A
8:30 pm55 °FPassing clouds.8 mph77%29.77 "HgN/A
8:00 pm55 °FPassing clouds.9 mph72%29.80 "HgN/A
7:30 pm55 °FPassing clouds.7 mph67%29.80 "HgN/A
7:00 pm57 °FPassing clouds.7 mph63%29.80 "HgN/A
6:30 pm57 °FPassing clouds.8 mph67%29.80 "HgN/A
6:00 pm57 °FPartly sunny.8 mph63%29.80 "HgN/A
5:30 pm57 °FPassing clouds.9 mph63%29.80 "HgN/A
5:00 pm59 °FPassing clouds.13 mph55%29.80 "HgN/A
4:30 pm59 °FPassing clouds.13 mph59%29.80 "HgN/A
4:00 pm59 °FScattered clouds.15 mph59%29.80 "HgN/A
3:30 pm59 °FScattered clouds.13 mph59%29.80 "HgN/A
3:00 pm61 °FPartly sunny.12 mph55%29.80 "HgN/A
2:30 pm61 °FPartly sunny.14 mph55%29.80 "HgN/A
2:00 pm59 °FPassing clouds.14 mph55%29.80 "HgN/A
1:30 pm59 °FPassing clouds.13 mph55%29.83 "HgN/A
1:00 pm57 °FPassing clouds.15 mph59%29.83 "HgN/A
12:30 pm57 °FPartly sunny.14 mph63%29.83 "HgN/A
12:00 pm55 °FPartly sunny.16 mph72%29.80 "HgN/A
11:30 am55 °FBroken clouds.17 mph72%29.80 "HgN/A
11:00 am54 °FPassing clouds.16 mph77%29.80 "HgN/A
10:30 am52 °FPassing clouds.15 mph77%29.77 "HgN/A
10:00 am52 °FPassing clouds.13 mph77%29.77 "HgN/A
9:30 am50 °FPassing clouds.13 mph82%29.74 "HgN/A
9:00 am50 °FLight rain. Clear.9 mph82%29.74 "HgN/A
Weather by CustomWeather, © 2019

See weather overview